Time,TemperatureF,DewpointF,PressureIn,WindDirection,WindDirectionDegrees,WindSpeedMPH,WindSpeedGustMPH,Humidity,HourlyPrecipIn,Conditions,Clouds,dailyrainin,SolarRadiationWatts/m^2,SoftwareType,DateUTC
2013-10-06 00:01:00,80.0,0.0,29.99,East,88,8.0,10.0,0,0.00,,BKN,0.00,0.00,VWS V14.01,2013-10-06 04:01:00,
2013-10-06 00:06:00,79.9,0.0,29.99,East,80,8.0,10.0,0,0.00,,BKN,0.00,0.00,VWS V14.01,2013-10-06 04:06:00,
2013-10-06 00:11:00,79.6,0.0,29.99,NE,49,6.0,9.0,0,0.00,,BKN,0.00,0.00,VWS V14.01,2013-10-06 04:11:00,
2013-10-06 00:16:00,79.7,0.0,29.98,East,92,9.0,11.0,0,0.00,,BKN,0.00,0.00,VWS V14.01,2013-10-06 04:16:00,
2013-10-06 00:21:00,79.7,0.0,29.98,East,93,9.0,9.0,0,0.00,,BKN,0.00,0.00,VWS V14.01,2013-10-06 04:21:00,
2013-10-06 00:26:00,79.8,0.0,29.98,ESE,108,10.0,10.0,0,0.00,,BKN,0.00,0.00,VWS V14.01,2013-10-06 04:26:00,
2013-10-06 00:31:00,79.8,0.0,29.98,East,93,8.0,9.0,0,0.00,,BKN,0.00,0.00,VWS V14.01,2013-10-06 04:31:00,
2013-10-06 00:36:00,79.8,0.0,29.98,ENE,65,7.0,8.0,0,0.00,,BKN,0.00,0.00,VWS V14.01,2013-10-06 04:36:00,
2013-10-06 00:41:00,79.7,0.0,29.98,NE,51,4.0,9.0,0,0.00,,BKN,0.00,0.00,VWS V14.01,2013-10-06 04:41:00,
2013-10-06 00:46:00,79.6,0.0,29.97,East,96,5.0,8.0,0,0.00,,BKN,0.00,0.00,VWS V14.01,2013-10-06 04:46:00,
2013-10-06 00:51:00,79.8,0.0,29.97,ENE,66,9.0,9.0,0,0.00,,BKN,0.00,0.00,VWS V14.01,2013-10-06 04:51:00,
2013-10-06 00:56:00,79.7,0.0,29.97,ENE,74,8.0,8.0,0,0.00,,BKN,0.00,0.00,VWS V14.01,2013-10-06 04:56:00,
2013-10-06 01:01:00,79.7,0.0,29.97,ENE,71,4.0,5.0,0,0.00,,BKN,0.00,0.00,VWS V14.01,2013-10-06 05:01:00,
2013-10-06 01:06:00,79.6,0.0,29.98,ENE,65,4.0,7.0,0,0.00,,BKN,0.00,0.00,VWS V14.01,2013-10-06 05:06:00,
2013-10-06 01:11:00,79.6,0.0,29.97,ENE,67,7.0,8.0,0,0.00,,BKN,0.00,0.00,VWS V14.01,2013-10-06 05:11:00,
2013-10-06 01:16:00,79.6,0.0,29.97,East,88,6.0,8.0,0,0.00,,BKN,0.00,0.00,VWS V14.01,2013-10-06 05:16:00,
2013-10-06 01:21:00,79.7,0.0,29.97,East,87,7.0,8.0,0,0.00,,BKN,0.00,0.00,VWS V14.01,2013-10-06 05:21:00,
2013-10-06 01:26:00,79.8,0.0,29.97,East,98,9.0,10.0,0,0.00,,BKN,0.00,0.00,VWS V14.01,2013-10-06 05:26:00,
2013-10-06 01:31:00,80.0,0.0,29.97,East,93,7.0,7.0,0,0.00,,BKN,0.00,0.00,VWS V14.01,2013-10-06 05:31:00,
2013-10-06 01:36:00,80.0,0.0,29.97,East,86,8.0,8.0,0,0.00,,BKN,0.00,0.00,VWS V14.01,2013-10-06 05:36:00,
2013-10-06 01:41:00,80.0,0.0,29.97,ESE,106,8.0,9.0,0,0.00,,BKN,0.00,0.00,VWS V14.01,2013-10-06 05:41:00,
2013-10-06 01:46:00,79.9,0.0,29.97,East,90,9.0,9.0,0,0.00,,BKN,0.00,0.00,VWS V14.01,2013-10-06 05:46:00,
2013-10-06 01:51:00,79.9,0.0,29.96,East,92,8.0,11.0,0,0.00,,BKN,0.00,0.00,VWS V14.01,2013-10-06 05:51:00,
2013-10-06 01:56:00,79.9,0.0,29.96,East,98,3.0,5.0,0,0.00,,BKN,0.00,0.00,VWS V14.01,2013-10-06 05:56:00,
2013-10-06 02:01:00,79.9,0.0,29.96,ESE,107,4.0,7.0,0,0.00,,BKN,0.00,0.00,VWS V14.01,2013-10-06 06:01:00,
2013-10-06 02:06:00,80.0,0.0,29.97,ESE,107,5.0,9.0,0,0.00,,BKN,0.00,0.00,VWS V14.01,2013-10-06 06:06:00,
2013-10-06 02:11:00,80.0,0.0,29.96,East,98,8.0,9.0,0,0.00,,BKN,0.00,0.00,VWS V14.01,2013-10-06 06:11:00,
2013-10-06 02:16:00,80.1,0.0,29.96,ESE,113,5.0,8.0,0,0.00,,BKN,0.00,0.00,VWS V14.01,2013-10-06 06:16:00,
2013-10-06 02:21:00,80.2,0.0,29.96,East,96,10.0,10.0,0,0.00,,BKN,0.00,0.00,VWS V14.01,2013-10-06 06:21:00,
2013-10-06 02:26:00,80.2,0.0,29.96,ESE,107,7.0,7.0,0,0.00,,BKN,0.00,0.00,VWS V14.01,2013-10-06 06:26:00,
2013-10-06 02:31:00,80.2,0.0,29.95,East,96,6.0,9.0,0,0.00,,BKN,0.00,0.00,VWS V14.01,2013-10-06 06:31:00,
2013-10-06 02:36:00,80.3,0.0,29.95,ESE,107,8.0,8.0,0,0.00,,BKN,0.00,0.00,VWS V14.01,2013-10-06 06:36:00,
2013-10-06 02:41:00,80.3,0.0,29.95,ESE,115,4.0,7.0,0,0.00,,BKN,0.00,0.00,VWS V14.01,2013-10-06 06:41:00,
2013-10-06 02:46:00,80.3,0.0,29.95,East,85,6.0,8.0,0,0.00,,BKN,0.00,0.00,VWS V14.01,2013-10-06 06:46:00,
2013-10-06 02:51:00,80.4,0.0,29.95,ESE,107,10.0,10.0,0,0.00,,BKN,0.00,0.00,VWS V14.01,2013-10-06 06:51:00,
2013-10-06 02:56:00,80.3,0.0,29.95,East,90,5.0,6.0,0,0.00,,BKN,0.00,0.00,VWS V14.01,2013-10-06 06:56:00,
2013-10-06 03:01:00,80.1,0.0,29.95,ESE,123,4.0,5.0,0,0.00,,BKN,0.00,0.00,VWS V14.01,2013-10-06 07:01:00,
2013-10-06 03:06:00,80.1,0.0,29.95,ESE,118,5.0,8.0,0,0.00,,BKN,0.00,0.00,VWS V14.01,2013-10-06 07:06:00,
2013-10-06 03:11:00,79.8,0.0,29.94,ESE,117,7.0,7.0,0,0.00,,BKN,0.00,0.00,VWS V14.01,2013-10-06 07:11:00,
2013-10-06 03:16:00,79.5,0.0,29.94,East,99,6.0,6.0,0,0.00,,BKN,0.00,0.00,VWS V14.01,2013-10-06 07:16:00,
2013-10-06 03:21:00,79.5,0.0,29.94,ESE,110,7.0,7.0,0,0.00,,BKN,0.00,0.00,VWS V14.01,2013-10-06 07:21:00,
2013-10-06 03:26:00,79.6,0.0,29.94,ESE,121,4.0,7.0,0,0.00,,BKN,0.00,0.00,VWS V14.01,2013-10-06 07:26:00,
2013-10-06 03:31:00,79.6,0.0,29.94,ESE,109,8.0,8.0,0,0.00,,BKN,0.00,0.00,VWS V14.01,2013-10-06 07:31:00,
2013-10-06 03:36:00,79.7,0.0,29.94,ESE,111,5.0,5.0,0,0.00,,BKN,0.00,0.00,VWS V14.01,2013-10-06 07:36:00,
2013-10-06 03:41:00,79.8,0.0,29.94,ESE,103,5.0,7.0,0,0.00,,BKN,0.00,0.00,VWS V14.01,2013-10-06 07:41:00,
2013-10-06 03:46:00,79.8,0.0,29.94,ESE,114,5.0,7.0,0,0.00,,BKN,0.00,0.00,VWS V14.01,2013-10-06 07:46:00,
2013-10-06 03:51:00,79.8,0.0,29.94,ESE,111,4.0,5.0,0,0.00,,BKN,0.00,0.00,VWS V14.01,2013-10-06 07:51:00,
2013-10-06 03:56:00,79.7,0.0,29.93,ESE,119,5.0,6.0,0,0.00,,BKN,0.00,0.00,VWS V14.01,2013-10-06 07:56:00,
2013-10-06 04:01:00,79.6,0.0,29.93,ESE,122,5.0,10.0,0,0.00,,BKN,0.00,0.00,VWS V14.01,2013-10-06 08:01:00,
2013-10-06 04:06:00,79.7,0.0,29.93,ESE,116,7.0,9.0,0,0.00,,BKN,0.00,0.00,VWS V14.01,2013-10-06 08:06:00,
2013-10-06 04:11:00,79.7,0.0,29.93,ESE,121,7.0,7.0,0,0.00,,BKN,0.00,0.00,VWS V14.01,2013-10-06 08:11:00,
2013-10-06 04:16:00,79.6,0.0,29.93,ESE,121,9.0,9.0,0,0.00,,BKN,0.00,0.00,VWS V14.01,2013-10-06 08:16:00,
2013-10-06 04:21:00,79.6,0.0,29.93,ESE,111,2.0,3.0,0,0.00,,BKN,0.00,0.00,VWS V14.01,2013-10-06 08:21:00,
2013-10-06 04:26:00,79.6,0.0,29.93,ESE,119,4.0,5.0,0,0.00,,BKN,0.00,0.00,VWS V14.01,2013-10-06 08:26:00,
2013-10-06 04:31:00,79.6,0.0,29.92,SE,124,5.0,5.0,0,0.00,,BKN,0.00,0.00,VWS V14.01,2013-10-06 08:31:00,
2013-10-06 04:36:00,79.7,0.0,29.92,ESE,117,5.0,7.0,0,0.00,,BKN,0.00,0.00,VWS V14.01,2013-10-06 08:36:00,
2013-10-06 04:41:00,79.7,0.0,29.93,ESE,119,4.0,5.0,0,0.00,,BKN,0.00,0.00,VWS V14.01,2013-10-06 08:41:00,
2013-10-06 04:46:00,79.7,0.0,29.93,ESE,123,2.0,4.0,0,0.00,,BKN,0.00,0.00,VWS V14.01,2013-10-06 08:46:00,
2013-10-06 04:51:00,79.6,0.0,29.93,ESE,117,3.0,4.0,0,0.00,,BKN,0.00,0.00,VWS V14.01,2013-10-06 08:51:00,
2013-10-06 04:56:00,79.6,0.0,29.93,ESE,118,3.0,5.0,0,0.00,,BKN,0.00,0.00,VWS V14.01,2013-10-06 08:56:00,
2013-10-06 05:01:00,79.6,0.0,29.93,ESE,118,2.0,3.0,0,0.00,,BKN,0.00,0.00,VWS V14.01,2013-10-06 09:01:00,
2013-10-06 05:06:00,79.6,0.0,29.93,ESE,115,8.0,8.0,0,0.00,,BKN,0.00,0.00,VWS V14.01,2013-10-06 09:06:00,
2013-10-06 05:09:00,79.6,0.0,29.93,ESE,107,5.0,9.0,0,0.00,,BKN,0.00,0.00,VWS V14.01,2013-10-06 09:09:00,
2013-10-06 05:14:00,79.1,0.0,29.93,SE,125,4.0,8.0,0,0.00,,BKN,0.00,0.00,VWS V14.01,2013-10-06 09:14:00,
2013-10-06 05:19:00,79.0,0.0,29.93,ESE,111,8.0,8.0,0,0.00,,BKN,0.00,0.00,VWS V14.01,2013-10-06 09:19:00,
2013-10-06 05:24:00,79.2,0.0,29.93,ESE,120,9.0,10.0,0,0.00,,BKN,0.00,0.00,VWS V14.01,2013-10-06 09:24:00,
2013-10-06 05:29:00,79.4,0.0,29.92,East,89,5.0,5.0,0,0.00,,BKN,0.00,0.00,VWS V14.01,2013-10-06 09:29:00,
2013-10-06 05:34:00,79.4,0.0,29.93,ESE,107,4.0,7.0,0,0.00,,BKN,0.00,0.00,VWS V14.01,2013-10-06 09:34:00,
2013-10-06 05:39:00,79.3,0.0,29.93,SE,133,3.0,5.0,0,0.00,,BKN,0.00,0.00,VWS V14.01,2013-10-06 09:39:00,
2013-10-06 05:44:00,79.3,0.0,29.93,ESE,121,2.0,3.0,0,0.00,,BKN,0.00,0.00,VWS V14.01,2013-10-06 09:44:00,
2013-10-06 05:49:00,79.2,0.0,29.93,ESE,103,3.0,7.0,0,0.00,,BKN,0.00,0.00,VWS V14.01,2013-10-06 09:49:00,
2013-10-06 05:54:00,79.2,0.0,29.93,ESE,103,4.0,5.0,0,0.00,,BKN,0.00,0.00,VWS V14.01,2013-10-06 09:54:00,
2013-10-06 05:59:00,79.3,0.0,29.93,ESE,122,8.0,8.0,0,0.00,,BKN,0.00,0.00,VWS V14.01,2013-10-06 09:59:00,
2013-10-06 06:04:00,79.3,0.0,29.93,ESE,117,3.0,4.0,0,0.00,,BKN,0.00,0.00,VWS V14.01,2013-10-06 10:04:00,
2013-10-06 06:09:00,79.2,0.0,29.94,SE,142,1.0,3.0,0,0.00,,BKN,0.00,0.00,VWS V14.01,2013-10-06 10:09:00,
2013-10-06 06:14:00,79.0,0.0,29.93,SE,142,1.0,3.0,0,0.00,,BKN,0.00,0.00,VWS V14.01,2013-10-06 10:14:00,
2013-10-06 06:19:00,78.8,0.0,29.94,SE,142,2.0,3.0,0,0.00,,BKN,0.00,0.00,VWS V14.01,2013-10-06 10:19:00,
2013-10-06 06:24:00,78.5,0.0,29.94,SE,142,1.0,2.0,0,0.00,,BKN,0.00,0.00,VWS V14.01,2013-10-06 10:24:00,
2013-10-06 06:29:00,78.5,0.0,29.94,WSW,253,5.0,5.0,0,0.00,,BKN,0.00,0.00,VWS V14.01,2013-10-06 10:29:00,
2013-10-06 06:34:00,78.4,0.0,29.94,WSW,253,2.0,4.0,0,0.00,,BKN,0.00,0.00,VWS V14.01,2013-10-06 10:34:00,
2013-10-06 06:39:00,78.3,0.0,29.94,WSW,253,1.0,3.0,0,0.00,,BKN,0.00,0.00,VWS V14.01,2013-10-06 10:39:00,
2013-10-06 06:44:00,78.1,0.0,29.94,WSW,253,1.0,3.0,0,0.00,,BKN,0.00,0.00,VWS V14.01,2013-10-06 10:44:00,
2013-10-06 06:49:00,78.0,0.0,29.94,WSW,253,0.0,0.0,0,0.00,,BKN,0.00,0.00,VWS V14.01,2013-10-06 10:49:00,
2013-10-06 06:54:00,77.8,0.0,29.95,WSW,253,0.0,0.0,0,0.00,,BKN,0.00,0.00,VWS V14.01,2013-10-06 10:54:00,
2013-10-06 06:59:00,77.8,0.0,29.95,WSW,253,1.0,2.0,0,0.00,,BKN,0.00,0.00,VWS V14.01,2013-10-06 10:59:00,
2013-10-06 07:04:00,77.7,0.0,29.95,WSW,253,1.0,2.0,0,0.00,,BKN,0.00,0.00,VWS V14.01,2013-10-06 11:04:00,
2013-10-06 07:09:00,77.6,0.0,29.94,WSW,253,1.0,2.0,0,0.00,,BKN,0.00,0.00,VWS V14.01,2013-10-06 11:09:00,
2013-10-06 07:14:00,77.5,0.0,29.95,WSW,253,2.0,2.0,0,0.00,,BKN,0.00,0.00,VWS V14.01,2013-10-06 11:14:00,
2013-10-06 07:19:00,77.4,0.0,29.95,WSW,253,2.0,2.0,0,0.00,,BKN,0.00,0.00,VWS V14.01,2013-10-06 11:19:00,
2013-10-06 07:24:00,77.3,0.0,29.95,WSW,253,1.0,1.0,0,0.00,,BKN,0.00,0.00,VWS V14.01,2013-10-06 11:24:00,
2013-10-06 07:29:00,77.3,0.0,29.95,WSW,253,0.0,1.0,0,0.00,,BKN,0.00,5.00,VWS V14.01,2013-10-06 11:29:00,
2013-10-06 07:34:00,77.3,0.0,29.95,WSW,253,0.0,1.0,0,0.00,,BKN,0.00,9.00,VWS V14.01,2013-10-06 11:34:00,
2013-10-06 07:39:00,77.3,0.0,29.95,WSW,253,0.0,0.0,0,0.00,,BKN,0.00,11.00,VWS V14.01,2013-10-06 11:39:00,
2013-10-06 07:44:00,77.2,0.0,29.95,WSW,253,1.0,1.0,0,0.00,,BKN,0.00,11.00,VWS V14.01,2013-10-06 11:44:00,
2013-10-06 07:48:00,77.3,0.0,29.95,WSW,253,0.0,1.0,0,0.00,,BKN,0.00,11.00,VWS V14.01,2013-10-06 11:48:00,
2013-10-06 07:53:00,77.3,0.0,29.95,WSW,253,0.0,0.0,0,0.00,,BKN,0.00,12.00,VWS V14.01,2013-10-06 11:53:00,
2013-10-06 07:58:00,77.3,0.0,29.95,South,186,1.0,4.0,0,0.00,,BKN,0.00,7.00,VWS V14.01,2013-10-06 11:58:00,
2013-10-06 08:03:00,77.3,0.0,29.96,SE,146,8.0,13.0,0,0.00,,BKN,0.00,9.00,VWS V14.01,2013-10-06 12:03:00,
2013-10-06 08:08:00,77.0,0.0,29.96,SSE,160,1.0,2.0,0,0.06,,BKN,0.06,14.00,VWS V14.01,2013-10-06 12:08:00,
2013-10-06 08:13:00,76.8,0.0,29.96,South,169,1.0,2.0,0,0.09,,BKN,0.09,23.00,VWS V14.01,2013-10-06 12:13:00,
2013-10-06 08:18:00,76.7,0.0,29.96,South,169,2.0,2.0,0,0.09,,BKN,0.09,26.00,VWS V14.01,2013-10-06 12:18:00,
2013-10-06 08:23:00,76.6,0.0,29.96,SSE,167,0.0,1.0,0,0.09,,BKN,0.09,40.00,VWS V14.01,2013-10-06 12:23:00,
2013-10-06 08:28:00,76.6,0.0,29.96,SSE,167,2.0,2.0,0,0.09,,BKN,0.09,77.00,VWS V14.01,2013-10-06 12:28:00,
2013-10-06 08:33:00,76.7,0.0,29.96,SSE,167,0.0,0.0,0,0.09,,BKN,0.09,132.00,VWS V14.01,2013-10-06 12:33:00,
2013-10-06 08:38:00,76.9,0.0,29.96,SSE,167,0.0,1.0,0,0.10,,BKN,0.10,123.00,VWS V14.01,2013-10-06 12:38:00,
2013-10-06 08:43:00,77.1,0.0,29.96,SSE,167,0.0,2.0,0,0.10,,BKN,0.10,234.00,VWS V14.01,2013-10-06 12:43:00,
2013-10-06 08:48:00,77.5,0.0,29.96,SSE,167,1.0,1.0,0,0.10,,BKN,0.10,369.00,VWS V14.01,2013-10-06 12:48:00,
2013-10-06 08:53:00,77.8,0.0,29.96,SSE,167,0.0,0.0,0,0.10,,BKN,0.10,149.00,VWS V14.01,2013-10-06 12:53:00,
2013-10-06 08:58:00,78.0,0.0,29.96,SSE,167,2.0,2.0,0,0.10,,BKN,0.10,227.00,VWS V14.01,2013-10-06 12:58:00,
2013-10-06 09:03:00,78.4,0.0,29.96,SSE,167,4.0,4.0,0,0.10,,BKN,0.10,397.00,VWS V14.01,2013-10-06 13:03:00,
2013-10-06 09:08:00,78.5,0.0,29.96,SSE,167,2.0,3.0,0,0.05,,BKN,0.10,111.00,VWS V14.01,2013-10-06 13:08:00,
2013-10-06 09:13:00,78.3,0.0,29.96,ESE,119,2.0,3.0,0,0.01,,BKN,0.10,81.00,VWS V14.01,2013-10-06 13:13:00,
2013-10-06 09:18:00,78.3,0.0,29.96,SE,131,1.0,1.0,0,0.01,,BKN,0.10,72.00,VWS V14.01,2013-10-06 13:18:00,
2013-10-06 09:23:00,78.4,0.0,29.96,SE,130,2.0,3.0,0,0.01,,BKN,0.10,70.00,VWS V14.01,2013-10-06 13:23:00,
2013-10-06 09:28:00,78.3,0.0,29.97,SE,129,3.0,5.0,0,0.01,,BKN,0.10,86.00,VWS V14.01,2013-10-06 13:28:00,
2013-10-06 09:33:00,78.2,0.0,29.97,ESE,104,4.0,4.0,0,0.01,,BKN,0.10,104.00,VWS V14.01,2013-10-06 13:33:00,
2013-10-06 09:38:00,78.2,0.0,29.96,ESE,119,5.0,8.0,0,0.00,,BKN,0.10,134.00,VWS V14.01,2013-10-06 13:38:00,
2013-10-06 09:43:00,78.3,0.0,29.97,ESE,107,3.0,3.0,0,0.00,,BKN,0.10,186.00,VWS V14.01,2013-10-06 13:43:00,
2013-10-06 09:48:00,78.4,0.0,29.97,ESE,112,3.0,4.0,0,0.00,,BKN,0.10,265.00,VWS V14.01,2013-10-06 13:48:00,
2013-10-06 09:53:00,78.7,0.0,29.97,ESE,112,2.0,2.0,0,0.00,,BKN,0.10,367.00,VWS V14.01,2013-10-06 13:53:00,
2013-10-06 09:58:00,79.2,0.0,29.97,ESE,112,2.0,2.0,0,0.00,,BKN,0.10,367.00,VWS V14.01,2013-10-06 13:58:00,
2013-10-06 10:03:00,79.6,0.0,29.97,ESE,112,0.0,0.0,0,0.00,,BKN,0.10,668.00,VWS V14.01,2013-10-06 14:03:00,
2013-10-06 10:08:00,80.0,0.0,29.97,ESE,112,2.0,3.0,0,0.00,,BKN,0.10,483.00,VWS V14.01,2013-10-06 14:08:00,
2013-10-06 10:13:00,80.5,0.0,29.97,ESE,112,3.0,3.0,0,0.00,,BKN,0.10,610.00,VWS V14.01,2013-10-06 14:13:00,
2013-10-06 10:18:00,81.1,0.0,29.97,ESE,112,2.0,2.0,0,0.00,,BKN,0.10,599.00,VWS V14.01,2013-10-06 14:18:00,
2013-10-06 10:23:00,81.9,0.0,29.97,ESE,112,3.0,4.0,0,0.00,,BKN,0.10,624.00,VWS V14.01,2013-10-06 14:23:00,
2013-10-06 10:28:00,82.2,0.0,29.97,ESE,112,4.0,4.0,0,0.00,,BKN,0.10,302.00,VWS V14.01,2013-10-06 14:28:00,
2013-10-06 10:33:00,82.7,0.0,29.97,SE,125,4.0,4.0,0,0.00,,BKN,0.10,631.00,VWS V14.01,2013-10-06 14:33:00,
2013-10-06 10:38:00,83.0,0.0,29.97,ESE,115,3.0,4.0,0,0.00,,BKN,0.10,619.00,VWS V14.01,2013-10-06 14:38:00,
2013-10-06 10:43:00,83.4,0.0,29.97,ESE,102,3.0,5.0,0,0.00,,BKN,0.10,642.00,VWS V14.01,2013-10-06 14:43:00,
2013-10-06 10:48:00,83.8,0.0,29.97,ESE,117,2.0,3.0,0,0.00,,BKN,0.10,663.00,VWS V14.01,2013-10-06 14:48:00,
2013-10-06 10:53:00,84.2,0.0,29.97,ESE,113,1.0,4.0,0,0.00,,BKN,0.10,671.00,VWS V14.01,2013-10-06 14:53:00,
2013-10-06 10:58:00,84.7,0.0,29.97,ESE,113,4.0,4.0,0,0.00,,BKN,0.10,636.00,VWS V14.01,2013-10-06 14:58:00,
2013-10-06 11:03:00,85.1,0.0,29.97,ESE,111,2.0,4.0,0,0.00,,BKN,0.10,701.00,VWS V14.01,2013-10-06 15:03:00,
2013-10-06 11:08:00,85.4,-25.7,29.97,ESE,110,3.0,3.0,1,0.00,,BKN,0.10,684.00,VWS V14.01,2013-10-06 15:08:00,
2013-10-06 11:13:00,85.7,0.0,29.97,ESE,109,4.0,4.0,0,0.00,,BKN,0.10,700.00,VWS V14.01,2013-10-06 15:13:00,
2013-10-06 11:18:00,85.9,-12.0,29.97,ESE,103,4.0,4.0,2,0.00,,BKN,0.10,710.00,VWS V14.01,2013-10-06 15:18:00,
2013-10-06 11:23:00,86.0,-3.7,29.97,ESE,104,3.0,4.0,3,0.00,,BKN,0.10,733.00,VWS V14.01,2013-10-06 15:23:00,
2013-10-06 11:28:00,85.9,0.0,29.97,East,98,5.0,6.0,0,0.00,,BKN,0.10,765.00,VWS V14.01,2013-10-06 15:28:00,
2013-10-06 11:33:00,85.4,-12.3,29.97,East,90,3.0,5.0,2,0.00,,BKN,0.10,338.00,VWS V14.01,2013-10-06 15:33:00,
2013-10-06 11:38:00,85.2,0.0,29.97,East,93,3.0,6.0,0,0.00,,BKN,0.10,812.00,VWS V14.01,2013-10-06 15:38:00,
2013-10-06 11:43:00,85.2,0.0,29.97,East,83,5.0,5.0,0,0.00,,BKN,0.10,754.00,VWS V14.01,2013-10-06 15:43:00,
2013-10-06 11:48:00,85.0,0.0,29.96,East,86,5.0,5.0,0,0.00,,BKN,0.10,747.00,VWS V14.01,2013-10-06 15:48:00,
2013-10-06 11:53:00,85.1,0.0,29.96,East,84,3.0,5.0,0,0.00,,BKN,0.10,747.00,VWS V14.01,2013-10-06 15:53:00,
2013-10-06 11:58:00,85.2,0.0,29.96,East,86,3.0,5.0,0,0.00,,BKN,0.10,751.00,VWS V14.01,2013-10-06 15:58:00,
2013-10-06 12:03:00,85.5,0.0,29.96,East,94,2.0,5.0,0,0.00,,BKN,0.10,756.00,VWS V14.01,2013-10-06 16:03:00,
2013-10-06 12:08:00,85.5,0.0,29.96,East,94,5.0,5.0,0,0.00,,BKN,0.10,761.00,VWS V14.01,2013-10-06 16:08:00,
2013-10-06 12:13:00,85.4,0.0,29.96,East,93,2.0,5.0,0,0.00,,BKN,0.10,768.00,VWS V14.01,2013-10-06 16:13:00,
2013-10-06 12:18:00,85.4,0.0,29.96,East,90,2.0,6.0,0,0.00,,BKN,0.10,773.00,VWS V14.01,2013-10-06 16:18:00,
2013-10-06 12:23:00,85.6,0.0,29.96,East,91,3.0,6.0,0,0.00,,BKN,0.10,775.00,VWS V14.01,2013-10-06 16:23:00,
2013-10-06 12:28:00,85.8,0.0,29.95,East,88,5.0,5.0,0,0.00,,BKN,0.10,779.00,VWS V14.01,2013-10-06 16:28:00,
2013-10-06 12:33:00,85.5,0.0,29.95,East,90,6.0,6.0,0,0.00,,BKN,0.10,784.00,VWS V14.01,2013-10-06 16:33:00,
2013-10-06 12:38:00,85.3,0.0,29.95,East,79,5.0,7.0,0,0.00,,BKN,0.10,793.00,VWS V14.01,2013-10-06 16:38:00,
2013-10-06 12:43:00,85.2,0.0,29.95,East,89,6.0,7.0,0,0.00,,BKN,0.10,793.00,VWS V14.01,2013-10-06 16:43:00,
2013-10-06 12:48:00,85.0,0.0,29.95,East,90,2.0,3.0,0,0.00,,BKN,0.10,789.00,VWS V14.01,2013-10-06 16:48:00,
2013-10-06 12:53:00,84.9,0.0,29.94,East,92,7.0,8.0,0,0.00,,BKN,0.10,793.00,VWS V14.01,2013-10-06 16:53:00,
2013-10-06 12:58:00,84.6,-12.9,29.94,East,92,7.0,8.0,2,0.00,,BKN,0.10,791.00,VWS V14.01,2013-10-06 16:58:00,
2013-10-06 13:03:00,84.6,0.0,29.94,East,94,6.0,8.0,0,0.00,,BKN,0.10,791.00,VWS V14.01,2013-10-06 17:03:00,
2013-10-06 13:08:00,84.7,0.0,29.94,East,90,7.0,7.0,0,0.00,,BKN,0.10,793.00,VWS V14.01,2013-10-06 17:08:00,
2013-10-06 13:13:00,85.0,0.0,29.93,ENE,61,5.0,5.0,0,0.00,,BKN,0.10,791.00,VWS V14.01,2013-10-06 17:13:00,
2013-10-06 13:18:00,85.0,1.7,29.93,ENE,78,3.0,6.0,4,0.00,,BKN,0.10,791.00,VWS V14.01,2013-10-06 17:18:00,
2013-10-06 13:23:00,85.1,0.0,29.93,ENE,67,5.0,8.0,0,0.00,,BKN,0.10,793.00,VWS V14.01,2013-10-06 17:23:00,
2013-10-06 13:28:00,85.4,0.0,29.93,ENE,71,5.0,5.0,0,0.00,,BKN,0.10,789.00,VWS V14.01,2013-10-06 17:28:00,
2013-10-06 13:33:00,85.6,0.0,29.93,ENE,72,5.0,8.0,0,0.00,,BKN,0.10,786.00,VWS V14.01,2013-10-06 17:33:00,
2013-10-06 13:38:00,85.6,-25.6,29.93,East,98,7.0,7.0,1,0.00,,BKN,0.10,786.00,VWS V14.01,2013-10-06 17:38:00,
2013-10-06 13:43:00,85.7,0.0,29.93,NE,55,4.0,4.0,0,0.00,,BKN,0.10,780.00,VWS V14.01,2013-10-06 17:43:00,
2013-10-06 13:48:00,85.9,0.0,29.92,East,86,5.0,8.0,0,0.00,,BKN,0.10,779.00,VWS V14.01,2013-10-06 17:48:00,
2013-10-06 13:53:00,85.8,11.2,29.92,ENE,75,5.0,7.0,6,0.00,,BKN,0.10,775.00,VWS V14.01,2013-10-06 17:53:00,
2013-10-06 13:58:00,85.5,2.1,29.92,East,88,7.0,8.0,4,0.00,,BKN,0.10,772.00,VWS V14.01,2013-10-06 17:58:00,
2013-10-06 14:03:00,85.5,-4.0,29.92,East,92,6.0,6.0,3,0.00,,BKN,0.10,772.00,VWS V14.01,2013-10-06 18:03:00,
2013-10-06 14:08:00,85.1,-4.3,29.92,ENE,74,7.0,8.0,3,0.00,,BKN,0.10,766.00,VWS V14.01,2013-10-06 18:08:00,
2013-10-06 14:13:00,85.1,0.0,29.92,East,99,7.0,8.0,0,0.00,,BKN,0.10,759.00,VWS V14.01,2013-10-06 18:13:00,
2013-10-06 14:18:00,85.1,0.0,29.91,East,100,5.0,7.0,0,0.00,,BKN,0.10,744.00,VWS V14.01,2013-10-06 18:18:00,
2013-10-06 14:23:00,85.2,0.0,29.91,East,89,8.0,8.0,0,0.00,,BKN,0.10,737.00,VWS V14.01,2013-10-06 18:23:00,
2013-10-06 14:28:00,85.0,0.0,29.91,ENE,74,7.0,8.0,0,0.00,,BKN,0.10,731.00,VWS V14.01,2013-10-06 18:28:00,
2013-10-06 14:33:00,84.9,0.0,29.91,East,95,8.0,8.0,0,0.00,,BKN,0.10,726.00,VWS V14.01,2013-10-06 18:33:00,
2013-10-06 14:38:00,84.9,0.0,29.91,East,98,7.0,8.0,0,0.00,,BKN,0.10,717.00,VWS V14.01,2013-10-06 18:38:00,
2013-10-06 14:43:00,84.8,0.0,29.91,East,81,10.0,10.0,0,0.00,,BKN,0.10,708.00,VWS V14.01,2013-10-06 18:43:00,
2013-10-06 14:48:00,84.7,0.0,29.90,East,87,5.0,7.0,0,0.00,,BKN,0.10,701.00,VWS V14.01,2013-10-06 18:48:00,
2013-10-06 14:53:00,84.7,0.0,29.90,East,92,7.0,8.0,0,0.00,,BKN,0.10,693.00,VWS V14.01,2013-10-06 18:53:00,
2013-10-06 14:58:00,84.5,0.0,29.90,East,99,9.0,9.0,0,0.00,,BKN,0.10,684.00,VWS V14.01,2013-10-06 18:58:00,
2013-10-06 15:03:00,84.6,0.0,29.90,East,86,7.0,9.0,0,0.00,,BKN,0.10,675.00,VWS V14.01,2013-10-06 19:03:00,
2013-10-06 15:08:00,84.6,0.0,29.89,East,92,10.0,10.0,0,0.00,,BKN,0.10,668.00,VWS V14.01,2013-10-06 19:08:00,
2013-10-06 15:13:00,84.5,0.0,29.90,East,92,7.0,7.0,0,0.00,,BKN,0.10,654.00,VWS V14.01,2013-10-06 19:13:00,
2013-10-06 15:18:00,84.5,0.0,29.90,East,88,9.0,10.0,0,0.00,,BKN,0.10,635.00,VWS V14.01,2013-10-06 19:18:00,
2013-10-06 15:23:00,84.7,0.0,29.89,ENE,72,9.0,9.0,0,0.00,,BKN,0.10,628.00,VWS V14.01,2013-10-06 19:23:00,
2013-10-06 15:28:00,84.8,0.0,29.89,ESE,112,10.0,10.0,0,0.00,,BKN,0.10,612.00,VWS V14.01,2013-10-06 19:28:00,
2013-10-06 15:33:00,84.8,0.0,29.89,East,98,8.0,10.0,0,0.00,,BKN,0.10,603.00,VWS V14.01,2013-10-06 19:33:00,
2013-10-06 15:38:00,84.8,0.0,29.89,ENE,75,10.0,10.0,0,0.00,,BKN,0.10,589.00,VWS V14.01,2013-10-06 19:38:00,
2013-10-06 15:43:00,84.6,-26.2,29.89,ENE,70,10.0,10.0,1,0.00,,BKN,0.10,573.00,VWS V14.01,2013-10-06 19:43:00,
2013-10-06 15:48:00,84.5,0.0,29.88,NE,50,7.0,11.0,0,0.00,,BKN,0.10,568.00,VWS V14.01,2013-10-06 19:48:00,
2013-10-06 15:53:00,84.5,0.0,29.88,East,93,6.0,7.0,0,0.00,,BKN,0.10,554.00,VWS V14.01,2013-10-06 19:53:00,
2013-10-06 15:58:00,84.5,0.0,29.88,East,82,10.0,12.0,0,0.00,,BKN,0.10,538.00,VWS V14.01,2013-10-06 19:58:00,
2013-10-06 16:03:00,84.4,0.0,29.88,ESE,103,8.0,8.0,0,0.00,,BKN,0.10,522.00,VWS V14.01,2013-10-06 20:03:00,
2013-10-06 16:08:00,84.4,0.0,29.88,East,90,7.0,13.0,0,0.00,,BKN,0.10,508.00,VWS V14.01,2013-10-06 20:08:00,
2013-10-06 16:13:00,84.3,0.0,29.88,East,91,10.0,13.0,0,0.00,,BKN,0.10,496.00,VWS V14.01,2013-10-06 20:13:00,
2013-10-06 16:18:00,84.3,0.0,29.88,East,87,7.0,13.0,0,0.00,,BKN,0.10,480.00,VWS V14.01,2013-10-06 20:18:00,
2013-10-06 16:23:00,84.4,0.0,29.88,East,98,6.0,8.0,0,0.00,,BKN,0.10,466.00,VWS V14.01,2013-10-06 20:23:00,
2013-10-06 16:28:00,84.5,0.0,29.87,East,91,8.0,10.0,0,0.00,,BKN,0.10,452.00,VWS V14.01,2013-10-06 20:28:00,
2013-10-06 16:33:00,84.5,0.0,29.87,ESE,104,7.0,13.0,0,0.00,,BKN,0.10,436.00,VWS V14.01,2013-10-06 20:33:00,
2013-10-06 16:38:00,84.6,0.0,29.87,East,94,5.0,7.0,0,0.00,,BKN,0.10,403.00,VWS V14.01,2013-10-06 20:38:00,
2013-10-06 16:43:00,84.6,0.0,29.87,East,87,9.0,9.0,0,0.00,,BKN,0.10,394.00,VWS V14.01,2013-10-06 20:43:00,
2013-10-06 16:48:00,84.6,0.0,29.87,East,82,7.0,11.0,0,0.00,,BKN,0.10,380.00,VWS V14.01,2013-10-06 20:48:00,
2013-10-06 16:53:00,84.4,0.0,29.87,ESE,103,7.0,10.0,0,0.00,,BKN,0.10,371.00,VWS V14.01,2013-10-06 20:53:00,
2013-10-06 16:58:00,84.2,0.0,29.87,ENE,59,8.0,11.0,0,0.00,,BKN,0.10,352.00,VWS V14.01,2013-10-06 20:58:00,
2013-10-06 17:03:00,83.9,0.0,29.87,East,98,13.0,13.0,0,0.00,,BKN,0.10,334.00,VWS V14.01,2013-10-06 21:03:00,
2013-10-06 17:08:00,83.6,0.0,29.87,ENE,78,10.0,12.0,0,0.00,,BKN,0.10,309.00,VWS V14.01,2013-10-06 21:08:00,
2013-10-06 17:13:00,83.6,0.0,29.87,East,96,8.0,8.0,0,0.00,,BKN,0.10,287.00,VWS V14.01,2013-10-06 21:13:00,
2013-10-06 17:18:00,83.5,0.0,29.87,ESE,113,8.0,10.0,0,0.00,,BKN,0.10,260.00,VWS V14.01,2013-10-06 21:18:00,
2013-10-06 17:23:00,83.5,0.0,29.88,SE,126,5.0,11.0,0,0.00,,BKN,0.10,255.00,VWS V14.01,2013-10-06 21:23:00,
2013-10-06 17:28:00,83.5,0.0,29.88,ENE,69,7.0,13.0,0,0.00,,BKN,0.10,144.00,VWS V14.01,2013-10-06 21:28:00,
2013-10-06 17:33:00,83.3,0.0,29.88,ESE,111,7.0,10.0,0,0.00,,BKN,0.10,54.00,VWS V14.01,2013-10-06 21:33:00,
2013-10-06 17:38:00,82.8,0.0,29.88,East,92,9.0,13.0,0,0.00,,BKN,0.10,74.00,VWS V14.01,2013-10-06 21:38:00,
2013-10-06 17:43:00,82.7,0.0,29.88,ESE,109,7.0,7.0,0,0.00,,BKN,0.10,67.00,VWS V14.01,2013-10-06 21:43:00,
2013-10-06 17:48:00,82.6,0.0,29.88,East,94,13.0,14.0,0,0.00,,BKN,0.10,39.00,VWS V14.01,2013-10-06 21:48:00,
2013-10-06 17:53:00,82.4,0.0,29.87,ENE,67,12.0,12.0,0,0.00,,BKN,0.10,37.00,VWS V14.01,2013-10-06 21:53:00,
2013-10-06 17:58:00,82.2,0.0,29.87,ESE,104,4.0,9.0,0,0.00,,BKN,0.10,35.00,VWS V14.01,2013-10-06 21:58:00,
2013-10-06 18:03:00,82.1,0.0,29.87,ESE,107,8.0,9.0,0,0.00,,BKN,0.10,28.00,VWS V14.01,2013-10-06 22:03:00,
2013-10-06 18:08:00,81.9,0.0,29.87,ESE,105,11.0,11.0,0,0.00,,BKN,0.10,21.00,VWS V14.01,2013-10-06 22:08:00,
2013-10-06 18:13:00,81.8,0.0,29.87,ESE,115,10.0,11.0,0,0.00,,BKN,0.10,16.00,VWS V14.01,2013-10-06 22:13:00,
2013-10-06 18:18:00,81.6,0.0,29.87,ESE,115,9.0,11.0,0,0.00,,BKN,0.10,12.00,VWS V14.01,2013-10-06 22:18:00,
2013-10-06 18:23:00,81.5,0.0,29.87,ESE,113,7.0,9.0,0,0.00,,BKN,0.10,12.00,VWS V14.01,2013-10-06 22:23:00,
2013-10-06 18:28:00,81.6,0.0,29.88,ESE,121,5.0,11.0,0,0.00,,BKN,0.10,11.00,VWS V14.01,2013-10-06 22:28:00,
2013-10-06 18:33:00,81.5,0.0,29.88,ESE,118,5.0,8.0,0,0.00,,BKN,0.10,9.00,VWS V14.01,2013-10-06 22:33:00,
2013-10-06 18:38:00,81.5,0.0,29.88,ESE,119,7.0,8.0,0,0.00,,BKN,0.10,9.00,VWS V14.01,2013-10-06 22:38:00,
2013-10-06 18:43:00,81.4,0.0,29.88,SE,128,4.0,7.0,0,0.00,,BKN,0.10,9.00,VWS V14.01,2013-10-06 22:43:00,
2013-10-06 18:48:00,81.4,0.0,29.88,SE,129,6.0,10.0,0,0.00,,BKN,0.10,7.00,VWS V14.01,2013-10-06 22:48:00,
2013-10-06 18:53:00,81.4,0.0,29.88,ESE,120,7.0,8.0,0,0.00,,BKN,0.10,5.00,VWS V14.01,2013-10-06 22:53:00,
2013-10-06 18:58:00,81.3,0.0,29.88,ESE,110,5.0,9.0,0,0.00,,BKN,0.10,0.00,VWS V14.01,2013-10-06 22:58:00,
2013-10-06 19:03:00,81.3,0.0,29.88,ESE,119,7.0,7.0,0,0.00,,BKN,0.10,0.00,VWS V14.01,2013-10-06 23:03:00,
2013-10-06 19:08:00,81.2,0.0,29.88,SSE,148,5.0,8.0,0,0.00,,BKN,0.10,0.00,VWS V14.01,2013-10-06 23:08:00,
2013-10-06 19:13:00,81.1,0.0,29.88,ESE,107,8.0,8.0,0,0.00,,BKN,0.10,0.00,VWS V14.01,2013-10-06 23:13:00,
2013-10-06 19:18:00,80.9,0.0,29.88,ESE,115,11.0,11.0,0,0.00,,BKN,0.10,0.00,VWS V14.01,2013-10-06 23:18:00,
2013-10-06 19:23:00,80.7,0.0,29.88,SE,131,7.0,10.0,0,0.00,,BKN,0.10,0.00,VWS V14.01,2013-10-06 23:23:00,
2013-10-06 19:28:00,80.9,0.0,29.88,SE,126,7.0,10.0,0,0.00,,BKN,0.10,0.00,VWS V14.01,2013-10-06 23:28:00,
2013-10-06 19:33:00,81.0,0.0,29.88,ESE,121,7.0,9.0,0,0.00,,BKN,0.10,0.00,VWS V14.01,2013-10-06 23:33:00,
2013-10-06 19:38:00,81.0,0.0,29.88,ESE,119,4.0,10.0,0,0.00,,BKN,0.10,0.00,VWS V14.01,2013-10-06 23:38:00,
2013-10-06 19:43:00,80.9,0.0,29.89,ESE,120,9.0,10.0,0,0.00,,BKN,0.10,0.00,VWS V14.01,2013-10-06 23:43:00,
2013-10-06 19:48:00,80.9,0.0,29.89,ESE,119,5.0,10.0,0,0.00,,BKN,0.10,0.00,VWS V14.01,2013-10-06 23:48:00,
2013-10-06 19:53:00,80.9,0.0,29.89,SE,132,8.0,12.0,0,0.00,,BKN,0.10,0.00,VWS V14.01,2013-10-06 23:53:00,
2013-10-06 19:58:00,80.9,0.0,29.89,SE,142,6.0,9.0,0,0.00,,BKN,0.10,0.00,VWS V14.01,2013-10-06 23:58:00,
2013-10-06 20:03:00,80.8,0.0,29.89,SE,134,11.0,11.0,0,0.00,,BKN,0.10,0.00,VWS V14.01,2013-10-07 00:03:00,
2013-10-06 20:08:00,80.7,0.0,29.89,ESE,122,7.0,10.0,0,0.00,,BKN,0.10,0.00,VWS V14.01,2013-10-07 00:08:00,
2013-10-06 20:13:00,80.7,0.0,29.89,SE,125,6.0,11.0,0,0.00,,BKN,0.10,0.00,VWS V14.01,2013-10-07 00:13:00,
2013-10-06 20:18:00,80.8,0.0,29.89,SE,138,5.0,7.0,0,0.00,,BKN,0.10,0.00,VWS V14.01,2013-10-07 00:18:00,
2013-10-06 20:23:00,80.9,0.0,29.89,SE,128,5.0,11.0,0,0.00,,BKN,0.10,0.00,VWS V14.01,2013-10-07 00:23:00,
2013-10-06 20:28:00,80.9,0.0,29.89,SE,126,4.0,10.0,0,0.00,,BKN,0.10,0.00,VWS V14.01,2013-10-07 00:28:00,
2013-10-06 20:33:00,80.7,0.0,29.89,SE,135,8.0,9.0,0,0.00,,BKN,0.10,0.00,VWS V14.01,2013-10-07 00:33:00,
2013-10-06 20:38:00,80.7,0.0,29.89,ESE,115,7.0,10.0,0,0.00,,BKN,0.10,0.00,VWS V14.01,2013-10-07 00:38:00,
2013-10-06 20:43:00,80.7,0.0,29.89,SE,140,2.0,7.0,0,0.00,,BKN,0.10,0.00,VWS V14.01,2013-10-07 00:43:00,
2013-10-06 20:48:00,80.9,0.0,29.89,SE,138,3.0,7.0,0,0.00,,BKN,0.10,0.00,VWS V14.01,2013-10-07 00:48:00,
2013-10-06 20:53:00,81.0,0.0,29.89,SSE,163,8.0,9.0,0,0.00,,BKN,0.10,0.00,VWS V14.01,2013-10-07 00:53:00,
2013-10-06 20:58:00,81.0,0.0,29.89,SSE,156,2.0,3.0,0,0.00,,BKN,0.10,0.00,VWS V14.01,2013-10-07 00:58:00,
2013-10-06 21:02:00,80.9,0.0,29.89,SSE,160,5.0,6.0,0,0.00,,BKN,0.10,0.00,VWS V14.01,2013-10-07 01:02:00,
2013-10-06 21:07:00,80.8,0.0,29.89,SE,139,9.0,9.0,0,0.00,,BKN,0.10,0.00,VWS V14.01,2013-10-07 01:07:00,
2013-10-06 21:12:00,80.7,0.0,29.89,SSE,155,3.0,6.0,0,0.00,,BKN,0.10,0.00,VWS V14.01,2013-10-07 01:12:00,
2013-10-06 21:17:00,80.9,0.0,29.89,South,188,7.0,7.0,0,0.00,,BKN,0.10,0.00,VWS V14.01,2013-10-07 01:17:00,
2013-10-06 21:22:00,80.7,0.0,29.89,SSW,206,7.0,7.0,0,0.00,,BKN,0.10,0.00,VWS V14.01,2013-10-07 01:22:00,
2013-10-06 21:27:00,80.3,0.0,29.89,South,175,6.0,12.0,0,0.00,,BKN,0.10,0.00,VWS V14.01,2013-10-07 01:27:00,
2013-10-06 21:32:00,80.0,0.0,29.89,SSW,194,5.0,8.0,0,0.00,,BKN,0.10,0.00,VWS V14.01,2013-10-07 01:32:00,
2013-10-06 21:37:00,79.7,0.0,29.89,South,184,8.0,9.0,0,0.00,,BKN,0.10,0.00,VWS V14.01,2013-10-07 01:37:00,
2013-10-06 21:42:00,79.5,0.0,29.89,South,183,7.0,7.0,0,0.00,,BKN,0.10,0.00,VWS V14.01,2013-10-07 01:42:00,
2013-10-06 21:47:00,79.3,0.0,29.89,South,184,6.0,8.0,0,0.00,,BKN,0.10,0.00,VWS V14.01,2013-10-07 01:47:00,
2013-10-06 21:52:00,79.2,0.0,29.89,South,186,5.0,7.0,0,0.00,,BKN,0.10,0.00,VWS V14.01,2013-10-07 01:52:00,
2013-10-06 21:57:00,79.0,0.0,29.89,South,190,4.0,4.0,0,0.00,,BKN,0.10,0.00,VWS V14.01,2013-10-07 01:57:00,
2013-10-06 22:02:00,78.8,0.0,29.89,South,191,4.0,4.0,0,0.00,,BKN,0.10,0.00,VWS V14.01,2013-10-07 02:02:00,
2013-10-06 22:08:00,78.6,0.0,29.89,South,189,2.0,3.0,0,0.00,,BKN,0.10,0.00,VWS V14.01,2013-10-07 02:08:00,
2013-10-06 22:13:00,78.5,0.0,29.89,South,189,1.0,1.0,0,0.00,,BKN,0.10,0.00,VWS V14.01,2013-10-07 02:13:00,
2013-10-06 22:18:00,78.3,0.0,29.88,South,189,4.0,4.0,0,0.00,,BKN,0.10,0.00,VWS V14.01,2013-10-07 02:18:00,
2013-10-06 22:23:00,78.2,0.0,29.88,South,184,2.0,4.0,0,0.00,,BKN,0.10,0.00,VWS V14.01,2013-10-07 02:23:00,
2013-10-06 22:28:00,78.0,0.0,29.89,SE,145,2.0,3.0,0,0.00,,BKN,0.10,0.00,VWS V14.01,2013-10-07 02:28:00,
2013-10-06 22:33:00,78.0,0.0,29.89,SSE,148,4.0,4.0,0,0.00,,BKN,0.10,0.00,VWS V14.01,2013-10-07 02:33:00,
2013-10-06 22:38:00,77.9,0.0,29.88,SE,124,3.0,4.0,0,0.00,,BKN,0.10,0.00,VWS V14.01,2013-10-07 02:38:00,
2013-10-06 22:43:00,77.8,0.0,29.88,SE,126,2.0,4.0,0,0.00,,BKN,0.10,0.00,VWS V14.01,2013-10-07 02:43:00,
2013-10-06 22:47:00,77.9,0.0,29.88,SE,130,3.0,3.0,0,0.00,,BKN,0.10,0.00,VWS V14.01,2013-10-07 02:47:00,
2013-10-06 22:52:00,78.1,0.0,29.88,ESE,121,3.0,4.0,0,0.00,,BKN,0.10,0.00,VWS V14.01,2013-10-07 02:52:00,
2013-10-06 22:57:00,78.3,0.0,29.88,SE,144,1.0,3.0,0,0.00,,BKN,0.10,0.00,VWS V14.01,2013-10-07 02:57:00,
2013-10-06 23:02:00,78.4,0.0,29.88,SE,144,0.0,0.0,0,0.00,,BKN,0.10,0.00,VWS V14.01,2013-10-07 03:02:00,
2013-10-06 23:07:00,78.4,0.0,29.88,SE,144,1.0,2.0,0,0.00,,BKN,0.10,0.00,VWS V14.01,2013-10-07 03:07:00,
2013-10-06 23:12:00,78.4,0.0,29.88,SE,144,1.0,2.0,0,0.00,,BKN,0.10,0.00,VWS V14.01,2013-10-07 03:12:00,
2013-10-06 23:17:00,78.3,0.0,29.88,SSE,149,1.0,3.0,0,0.00,,BKN,0.10,0.00,VWS V14.01,2013-10-07 03:17:00,
2013-10-06 23:22:00,78.2,0.0,29.88,SSE,149,1.0,1.0,0,0.00,,BKN,0.10,0.00,VWS V14.01,2013-10-07 03:22:00,
2013-10-06 23:27:00,78.2,0.0,29.88,SSE,149,0.0,0.0,0,0.00,,BKN,0.10,0.00,VWS V14.01,2013-10-07 03:27:00,
2013-10-06 23:32:00,78.1,0.0,29.88,SSE,149,3.0,3.0,0,0.00,,BKN,0.10,0.00,VWS V14.01,2013-10-07 03:32:00,
2013-10-06 23:37:00,78.0,0.0,29.88,SSE,149,0.0,1.0,0,0.00,,BKN,0.10,0.00,VWS V14.01,2013-10-07 03:37:00,
2013-10-06 23:42:00,77.9,0.0,29.87,SSE,149,3.0,3.0,0,0.00,,BKN,0.10,0.00,VWS V14.01,2013-10-07 03:42:00,
2013-10-06 23:47:00,77.6,0.0,29.87,WSW,241,3.0,4.0,0,0.00,,BKN,0.10,0.00,VWS V14.01,2013-10-07 03:47:00,
2013-10-06 23:52:00,77.4,0.0,29.87,WSW,241,1.0,1.0,0,0.00,,BKN,0.10,0.00,VWS V14.01,2013-10-07 03:52:00,
2013-10-06 23:57:00,77.2,0.0,29.87,WSW,241,1.0,2.0,0,0.00,,BKN,0.10,0.00,VWS V14.01,2013-10-07 03:57:00,